Wetbulb
60.96 60.78 61.44 61.50 61.79 61.92 63.07 63.32 63.05 62.86 62.87 62.38 61.39 60.76 60.52 59.33 59.37 56.81 53.44 57.55 57.79 62.31 60.18 53.55 52.12 51.51 51.68 49.48 50.36 47.15 40.71 38.56 40.65 40.71 41.91 46.04 44.10 46.10 47.26 48.98 50.04 53.44 53.88 58.47 61.90
60.41 60.55 60.43 61.26 61.05 61.33 62.46 62.84 62.23 61.94 61.91 61.63 60.95 60.44 60.24 60.64 56.20 54.40 60.60 61.86 61.84 62.90 53.41 50.76 49.04 49.92 46.52 48.30 47.45 43.82 39.71 41.64 44.25 44.09 43.68 45.55 45.59 45.59 46.24 46.52 48.26 55.86 59.29 60.96 60.97
59.99 60.14 60.18 60.63 61.26 61.21 62.06 61.74 61.74 61.52 61.34 60.92 60.20 59.65 59.71 59.52 53.40 54.10 62.92 63.46 62.83 62.71 55.77 53.49 51.52 48.92 45.90 46.32 44.43 43.46 41.74 44.25 44.34 46.45 47.52 45.78 44.36 45.84 45.52 42.98 48.61 55.49 57.57 58.90 58.54
59.58 59.75 59.74 60.23 60.39 61.50 61.45 61.29 61.78 61.14 60.65 60.25 60.07 60.00 59.31 56.01 45.44 56.88 63.06 63.78 63.50 62.13 56.08 51.67 49.39 45.71 44.53 42.94 46.10 41.46 44.62 45.56 47.05 46.43 46.96 45.61 46.14 44.47 44.48 44.42 49.91 57.94 59.25 58.82 57.83
59.08 59.16 59.00 59.55 60.04 60.78 60.91 61.35 61.44 60.93 60.59 60.13 59.63 58.80 55.34 48.14 49.19 55.97 62.48 63.70 61.36 59.62 53.69 50.26 46.80 46.05 42.73 43.83 45.35 42.87 43.48 46.07 46.07 45.41 45.95 46.78 44.03 43.77 43.90 45.23 50.99 57.78 58.92 57.82 58.00
58.61 58.64 58.40 59.02 59.60 60.11 60.62 61.10 61.14 61.29 61.17 59.90 59.95 59.08 51.30 43.89 54.70 57.84 60.79 61.07 58.79 57.37 53.53 50.90 47.64 48.14 44.92 44.10 43.65 44.62 45.38 44.70 45.28 43.85 44.23 43.97 41.75 44.24 43.21 44.96 48.65 55.20 55.85 56.81 57.64
58.35 58.28 58.25 58.62 59.08 59.37 60.06 60.29 60.81 60.81 60.99 61.35 60.64 54.90 47.70 47.79 53.97 56.07 58.56 59.92 59.59 57.54 50.44 51.49 50.74 46.80 45.92 43.41 45.50 44.61 41.11 41.07 42.64 43.48 43.06 43.59 40.76 40.90 43.96 44.96 45.34 47.51 50.70 54.87 56.38
58.10 57.94 57.94 58.11 58.58 58.89 59.29 59.63 60.13 60.38 60.52 61.00 60.00 51.33 43.86 54.06 54.43 53.81 54.57 54.85 59.72 55.63 53.00 52.00 50.76 47.36 45.18 44.16 42.82 41.70 39.81 35.39 40.45 42.99 42.32 41.38 37.32 42.00 42.74 42.88 42.75 43.44 44.41 49.45 53.81
57.63 57.44 57.61 57.67 58.00 58.42 58.74 59.11 59.22 60.04 60.61 59.96 52.94 46.90 42.02 54.16 49.79 52.38 52.42 51.33 51.82 51.34 51.32 51.77 48.60 44.50 42.76 37.80 35.41 35.83 31.85 35.07 37.21 41.96 40.84 39.61 37.34 41.34 42.25 41.55 40.52 41.10 42.72 46.34 49.48
57.42 57.15 57.27 57.40 57.86 58.13 58.32 58.56 58.73 58.58 57.79 55.46 53.13 42.34 45.36 45.35 50.38 50.66 51.39 52.14 48.76 48.34 47.08 45.55 43.95 39.95 37.61 34.04 30.90 31.44 32.14 35.30 34.50 39.79 39.34 36.73 37.05 40.20 42.16 40.72 39.81 39.95 41.22 44.81 47.59
57.27 57.02 57.21 57.36 57.95 58.21 56.90 53.89 48.29 47.29 49.06 43.60 44.35 42.35 44.23 48.33 51.10 48.67 50.90 49.40 47.94 45.58 39.67 41.97 36.57 35.61 36.68 37.37 38.41 36.77 36.02 35.99 36.11 39.49 39.05 37.61 37.88 39.59 41.51 40.64 38.88 38.74 40.72 42.27 42.80
57.11 57.00 57.14 57.58 57.94 57.48 53.92 46.20 45.82 47.38 41.81 47.26 46.73 45.19 47.50 48.13 43.67 46.31 49.95 44.73 44.12 38.65 41.43 38.81 34.89 39.47 41.74 40.33 38.99 36.49 34.97 32.79 35.59 38.60 37.29 37.04 38.38 39.00 40.61 40.72 41.01 41.54 40.58 41.09 41.09
56.79 56.66 56.81 57.39 57.41 54.63 49.76 47.47 52.03 49.54 39.93 42.45 45.40 43.80 44.59 46.96 42.93 43.32 46.95 44.51 41.39 38.62 38.79 36.21 38.90 42.44 41.17 38.68 37.65 35.52 34.48 33.63 34.52 36.01 34.95 34.07 32.68 37.03 39.01 40.26 40.96 41.07 41.38 41.41 41.73
56.61 56.45 56.52 56.97 53.22 51.74 48.08 52.72 50.94 47.63 31.69 36.77 39.73 43.07 45.77 45.42 41.41 46.94 47.52 44.78 40.74 37.97 39.12 37.93 41.82 40.59 38.35 38.08 38.30 34.25 38.74 37.54 35.57 33.36 28.67 32.08 25.88 32.35 35.59 37.11 39.18 39.90 39.83 40.34 41.84
56.42 56.27 56.51 56.19 51.86 48.95 49.80 52.63 51.63 45.91 19.10 37.55 39.35 47.02 45.87 41.43 42.13 42.50 46.14 43.10 39.18 38.83 38.23 35.46 37.68 37.45 35.76 37.77 39.10 36.53 39.50 37.47 35.63 33.45 29.59 28.74 26.86 29.88 34.46 33.89 37.15 38.77 39.80 40.68 41.73
56.04 56.00 56.07 53.13 52.33 52.38 53.01 52.95 47.99 32.93 20.49 34.13 38.50 38.56 38.44 39.95 40.41 42.23 42.27 42.96 43.16 39.74 39.18 37.45 39.53 39.74 39.50 38.98 39.74 40.24 38.30 36.82 34.88 31.98 25.01 29.03 28.35 27.27 31.14 36.60 35.56 38.62 39.80 41.15 41.36
53.32 55.61 54.42 53.14 48.06 53.22 53.29 48.48 31.02 21.59 35.62 32.46 32.89 37.37 36.78 35.80 37.38 38.12 37.97 36.03 34.55 32.20 32.37 35.29 36.30 38.12 39.94 37.16 38.38 37.83 32.60 24.70 24.37 22.91 22.98 26.85 25.74 30.48 34.39 37.26 38.89 39.19 39.53 40.31 40.86
51.50 55.23 53.57 52.96 53.20 53.32 50.02 38.81 18.51 28.88 32.13 37.10 36.16 36.82 32.98 37.03 35.16 36.72 35.03 34.18 36.71 36.22 32.50 29.29 27.58 35.42 38.77 37.35 34.48 33.25 33.14 24.77 20.67 20.25 23.36 26.19 25.64 32.07 35.55 38.26 40.48 41.22 40.21 40.40 40.22
49.80 52.95 50.70 50.30 53.25 53.20 43.08 29.53 27.06 31.80 36.83 34.94 35.44 32.33 31.87 35.98 35.68 34.55 34.40 35.50 36.33 36.37 32.05 30.86 30.67 37.10 37.74 38.69 38.84 33.26 30.42 34.58 26.57 17.23 21.26 24.40 27.70 33.85 36.75 37.68 38.50 38.82 39.76 39.33 40.33
44.21 48.78 46.13 47.92 53.38 49.12 37.67 30.90 33.08 38.31 39.28 37.29 30.32 32.87 28.25 32.47 31.83 32.25 33.07 37.34 37.08 38.58 38.52 35.29 29.00 35.25 36.25 38.30 37.26 34.87 37.13 29.43 26.81 17.20 17.22 22.54 23.82 28.07 31.71 35.94 37.07 38.05 38.65 39.32 39.99
41.51 42.43 43.32 47.29 50.86 43.32 31.80 31.87 36.12 41.21 41.03 36.76 33.88 32.87 32.24 31.62 32.52 32.29 33.24 36.19 40.11 38.52 39.28 37.07 33.97 31.18 34.79 33.37 33.40 32.58 30.73 31.38 31.98 27.31 21.61 18.51 24.65 32.76 35.30 37.85 37.56 39.07 40.31 40.01 39.97
36.80 32.92 42.84 46.66 39.24 39.49 34.30 35.80 40.56 40.21 42.01 39.83 38.60 36.51 34.00 34.90 33.50 33.67 33.52 36.20 41.55 39.71 35.36 37.67 33.40 27.50 30.28 34.61 35.50 33.67 33.99 33.53 27.83 25.26 26.07 25.75 27.26 36.58 35.39 39.25 40.26 39.93 40.94 41.04 40.96
32.01 32.79 42.25 44.22 32.61 34.22 37.86 37.39 38.94 38.91 39.04 39.35 38.14 38.88 37.69 35.32 32.07 35.01 35.99 38.98 39.14 38.96 36.59 38.24 31.99 25.09 28.19 32.07 33.60 32.67 33.91 34.69 33.07 28.02 23.66 21.99 25.94 36.09 34.13 37.72 40.31 39.64 40.56 41.01 40.71
32.46 31.49 35.90 38.44 35.86 35.64 35.18 34.89 35.72 41.13 39.66 41.05 39.35 39.44 36.85 34.69 36.54 34.52 35.69 39.18 39.75 39.30 41.68 40.89 34.19 30.38 26.75 29.50 33.22 30.06 32.19 33.34 33.21 26.07 25.74 26.01 27.99 32.26 34.23 36.70 37.96 39.50 40.95 40.54 40.58
34.39 30.85 31.29 31.77 33.44 35.34 36.62 36.39 34.96 35.85 39.98 41.16 38.46 38.01 36.35 32.32 34.18 33.76 37.42 37.45 39.16 40.56 38.62 37.93 29.64 32.57 32.68 33.91 33.86 33.39 32.86 32.54 31.83 35.16 30.52 33.42 30.43 33.73 35.09 37.32 39.71 40.72 40.57 39.95 39.97
32.26 31.81 33.36 31.98 32.84 35.72 36.00 32.91 34.93 36.69 38.76 37.64 37.39 38.94 38.10 34.60 35.12 33.33 36.21 35.77 35.29 37.91 37.01 37.65 27.53 31.28 28.48 33.64 33.08 30.21 32.50 33.67 35.20 34.37 32.61 31.21 31.44 36.72 37.83 38.50 39.07 40.54 40.74 40.37 40.36
37.26 37.99 34.87 32.84 32.14 34.55 33.63 34.86 34.88 38.21 39.33 41.11 40.78 38.90 37.91 39.43 40.50 40.11 40.41 39.97 38.92 36.34 35.28 35.68 32.54 29.07 24.06 29.40 29.53 26.34 31.41 32.34 33.79 34.88 35.90 31.76 37.02 35.81 36.34 38.86 40.19 40.69 41.57 41.60 41.51
MSLP
1007.57 1008.32 1008.80 1009.12 1009.94 1010.47 1010.61 1011.04 1011.69 1012.58 1013.35 1014.14 1014.74 1015.46 1015.88 1016.31 1016.26 1016.39 1015.92 1015.69 1015.88 1016.01 1016.30 1016.54 1016.83 1016.04 1015.56 1015.08 1014.66 1014.95 1015.75 1016.00 1015.71 1015.65 1015.19 1014.94 1015.13 1015.19 1015.39 1016.10 1016.77 1017.07 1017.46 1017.82 1018.84
1007.20 1007.90 1008.54 1008.73 1009.48 1010.33 1010.48 1010.97 1011.66 1012.43 1013.04 1014.02 1014.63 1015.25 1015.83 1016.33 1016.56 1016.22 1015.69 1015.54 1015.87 1016.25 1016.07 1016.54 1016.60 1016.59 1015.92 1015.08 1014.92 1015.14 1015.63 1015.44 1014.98 1014.60 1014.90 1014.93 1015.08 1015.33 1016.04 1016.74 1017.76 1017.92 1017.90 1018.44 1019.02
1006.75 1007.47 1008.17 1008.75 1009.22 1009.95 1010.52 1011.08 1011.45 1012.19 1012.97 1013.75 1014.60 1015.26 1015.84 1016.39 1016.39 1014.97 1015.27 1015.63 1015.83 1016.39 1016.14 1016.39 1016.65 1016.91 1015.88 1015.34 1015.07 1015.11 1015.14 1014.84 1014.63 1014.25 1014.29 1015.01 1015.31 1015.35 1016.23 1017.12 1017.63 1018.12 1018.42 1018.91 1019.43
1006.30 1006.88 1007.80 1008.46 1009.00 1009.74 1010.26 1010.93 1011.44 1012.04 1012.92 1013.52 1014.41 1015.02 1015.57 1016.09 1015.37 1013.47 1014.28 1015.06 1015.89 1016.39 1016.52 1016.35 1017.20 1016.90 1015.96 1015.70 1015.11 1015.04 1014.73 1014.50 1014.59 1014.58 1014.54 1015.03 1015.34 1015.75 1016.24 1016.52 1016.85 1017.74 1018.13 1018.71 1019.38
1005.76 1006.59 1007.62 1008.13 1008.52 1009.50 1009.99 1010.67 1011.53 1012.13 1012.68 1013.50 1014.24 1014.75 1015.24 1015.61 1014.49 1013.37 1013.55 1014.55 1015.80 1016.37 1016.35 1016.58 1017.44 1017.03 1016.10 1015.49 1015.29 1015.16 1014.81 1014.65 1014.70 1014.89 1014.70 1014.93 1015.51 1016.10 1016.68 1016.59 1017.01 1017.82 1018.50 1018.90 1019.42
1005.36 1006.36 1007.30 1008.02 1008.39 1009.30 1009.82 1010.42 1011.35 1011.86 1012.94 1013.24 1013.87 1014.35 1014.62 1014.66 1013.32 1013.12 1013.43 1014.23 1015.33 1016.17 1016.18 1016.46 1016.35 1016.11 1015.41 1014.94 1015.28 1014.94 1015.00 1014.89 1014.88 1015.20 1015.14 1015.33 1015.84 1016.01 1017.04 1016.95 1017.59 1018.16 1018.65 1018.96 1019.13
1005.05 1006.10 1006.96 1007.68 1008.09 1008.93 1009.77 1010.61 1011.15 1011.84 1012.60 1012.97 1013.45 1014.13 1014.41 1013.49 1012.85 1013.04 1013.44 1013.93 1014.60 1015.69 1015.81 1016.02 1015.59 1016.18 1014.99 1014.79 1014.84 1015.18 1015.44 1015.58 1015.34 1015.46 1015.58 1015.61 1016.42 1016.39 1016.73 1017.24 1017.86 1018.35 1018.61 1018.91 1018.91
1004.65 1005.73 1006.65 1007.16 1007.94 1009.04 1009.73 1010.38 1011.26 1011.86 1012.52 1013.06 1013.31 1014.16 1013.94 1012.83 1012.91 1013.12 1013.36 1013.92 1014.65 1014.95 1015.30 1015.17 1015.14 1015.46 1015.03 1014.94 1015.12 1015.52 1015.77 1016.33 1015.80 1015.71 1015.91 1016.16 1016.48 1016.71 1016.79 1017.33 1018.00 1018.26 1018.46 1018.76 1018.66
1004.16 1005.21 1006.17 1007.07 1008.01 1008.74 1009.56 1010.56 1011.46 1012.15 1012.52 1013.31 1013.69 1014.46 1013.60 1012.56 1012.82 1012.98 1013.30 1013.91 1014.61 1014.72 1014.68 1014.63 1015.11 1015.64 1015.12 1015.54 1015.91 1015.93 1016.22 1016.35 1016.34 1016.05 1016.14 1016.38 1016.69 1016.80 1016.93 1017.54 1018.08 1018.01 1018.49 1018.58 1018.44
1003.80 1004.93 1006.03 1006.85 1007.71 1008.52 1009.71 1010.65 1011.66 1012.50 1013.02 1013.65 1013.72 1014.85 1013.24 1012.52 1012.58 1012.96 1013.37 1014.13 1015.02 1014.77 1014.79 1014.78 1015.21 1015.19 1015.52 1015.79 1015.71 1016.18 1016.50 1016.47 1016.33 1016.45 1016.60 1016.66 1016.82 1017.12 1016.99 1017.61 1017.82 1017.93 1018.27 1018.53 1018.52
1003.67 1004.57 1005.69 1006.59 1007.49 1008.33 1009.49 1010.50 1012.19 1013.29 1012.65 1012.09 1012.81 1012.72 1011.47 1011.98 1012.51 1012.96 1013.17 1013.80 1014.55 1015.33 1014.73 1014.78 1015.07 1014.05 1014.95 1015.60 1015.70 1015.89 1016.23 1016.54 1016.67 1016.42 1016.72 1016.73 1017.03 1017.02 1016.97 1017.66 1017.64 1018.07 1018.22 1018.29 1019.01
1003.17 1004.16 1005.23 1006.30 1007.20 1007.96 1008.96 1009.39 1009.27 1009.47 1012.24 1012.22 1012.49 1012.13 1011.53 1011.54 1012.29 1012.61 1012.85 1014.00 1014.29 1014.88 1015.06 1015.10 1014.41 1014.87 1015.11 1015.42 1015.48 1015.98 1016.24 1016.84 1017.25 1016.84 1017.14 1017.25 1017.33 1017.28 1017.22 1017.31 1017.38 1017.73 1018.19 1018.70 1019.11
1002.40 1003.72 1004.86 1005.94 1007.22 1008.48 1008.90 1008.85 1008.82 1008.88 1011.23 1011.88 1011.92 1012.02 1011.76 1011.94 1012.10 1012.37 1012.78 1013.37 1014.24 1014.68 1014.65 1014.98 1014.17 1014.39 1014.78 1014.99 1015.33 1015.71 1016.03 1016.93 1016.99 1017.43 1017.88 1017.74 1018.13 1017.80 1017.39 1017.43 1017.68 1017.83 1018.19 1018.89 1019.35
1002.76 1003.64 1004.55 1005.67 1007.75 1008.11 1008.74 1008.40 1008.71 1008.46 1010.39 1011.54 1011.63 1011.25 1011.70 1011.75 1012.25 1012.20 1012.34 1012.81 1013.45 1014.26 1014.92 1014.89 1014.17 1013.83 1014.51 1014.54 1014.78 1015.23 1015.34 1016.10 1016.96 1017.83 1018.54 1018.12 1018.62 1018.06 1017.52 1017.75 1018.05 1018.49 1018.69 1019.29 1019.74
1002.49 1003.44 1004.31 1005.23 1005.82 1007.42 1007.68 1008.48 1008.43 1008.77 1010.15 1010.79 1011.11 1010.62 1011.26 1011.88 1011.83 1012.21 1012.24 1012.60 1012.95 1013.19 1013.79 1013.86 1013.85 1013.92 1013.98 1013.69 1014.18 1014.99 1015.23 1016.28 1017.28 1018.27 1018.79 1018.95 1019.37 1018.00 1017.81 1018.34 1018.44 1018.61 1019.15 1019.73 1020.34
1002.34 1003.14 1004.17 1005.22 1006.15 1006.92 1007.39 1008.29 1008.58 1009.78 1009.86 1010.45 1010.46 1010.61 1011.61 1011.65 1011.79 1012.01 1012.21 1012.51 1012.50 1012.88 1013.33 1013.90 1013.79 1013.85 1013.83 1013.77 1013.92 1014.85 1015.70 1017.02 1018.24 1019.16 1019.77 1018.88 1019.42 1018.16 1017.75 1017.07 1018.04 1018.75 1019.46 1020.09 1020.90
1002.68 1002.66 1003.78 1004.59 1005.33 1006.41 1007.40 1008.28 1009.57 1009.33 1009.04 1010.14 1010.30 1010.38 1011.28 1011.61 1011.98 1011.92 1012.15 1012.53 1012.08 1012.45 1013.40 1014.08 1014.08 1014.14 1013.84 1014.10 1014.47 1014.56 1016.16 1018.44 1019.97 1020.55 1019.93 1019.53 1019.61 1017.52 1016.53 1016.45 1016.83 1018.38 1019.62 1020.43 1020.97
1002.33 1002.77 1003.74 1004.58 1005.09 1006.48 1007.37 1008.54 1009.31 1008.24 1008.55 1008.82 1009.32 1010.65 1011.11 1011.31 1011.81 1012.07 1012.33 1012.19 1011.75 1011.46 1013.21 1013.80 1014.92 1014.31 1013.75 1013.47 1014.03 1014.92 1015.53 1017.50 1018.91 1020.47 1020.45 1019.87 1018.78 1016.80 1016.34 1016.31 1016.63 1017.80 1019.16 1020.27 1021.15
1002.89 1002.94 1004.29 1004.89 1004.72 1005.92 1007.65 1008.66 1006.97 1006.67 1007.18 1008.04 1009.33 1010.22 1010.63 1010.81 1011.00 1011.98 1011.77 1011.47 1011.10 1011.13 1011.69 1012.77 1013.83 1014.15 1014.11 1013.66 1013.78 1015.05 1015.66 1016.28 1018.45 1020.74 1020.65 1019.27 1018.19 1016.75 1016.78 1017.17 1017.67 1018.36 1019.42 1020.32 1021.17
1003.11 1003.27 1004.62 1005.46 1004.91 1006.22 1007.74 1006.98 1006.42 1005.84 1006.37 1007.16 1008.04 1008.67 1009.16 1009.81 1010.50 1010.69 1011.11 1010.74 1010.57 1010.47 1010.30 1011.45 1013.54 1014.44 1014.46 1014.09 1014.28 1014.04 1014.73 1016.40 1017.68 1019.69 1020.28 1019.05 1018.09 1016.60 1016.89 1017.16 1017.88 1018.61 1019.43 1020.44 1021.18
1003.43 1003.53 1005.34 1005.57 1005.99 1006.91 1005.98 1006.41 1005.76 1005.10 1005.24 1006.10 1006.77 1007.68 1008.25 1008.98 1009.56 1009.92 1010.07 1009.66 1009.95 1010.26 1010.59 1011.14 1012.58 1015.15 1014.97 1014.53 1014.17 1014.44 1014.66 1015.45 1016.54 1017.87 1018.40 1018.67 1016.97 1014.88 1014.90 1015.71 1016.85 1017.92 1019.02 1020.19 1020.83
1004.90 1005.20 1005.30 1005.34 1005.88 1006.18 1005.96 1005.51 1005.00 1005.01 1005.05 1005.30 1005.61 1006.44 1007.25 1008.14 1008.86 1009.29 1009.22 1008.94 1009.05 1009.67 1010.81 1011.34 1013.09 1014.79 1014.97 1014.66 1014.37 1013.91 1014.08 1014.61 1015.87 1017.49 1017.68 1017.56 1015.65 1014.28 1014.47 1015.10 1016.07 1017.42 1018.55 1019.58 1020.63
1006.09 1005.82 1005.23 1004.88 1004.73 1005.10 1005.82 1005.72 1005.09 1005.15 1005.31 1005.41 1005.54 1005.74 1006.38 1007.48 1008.71 1009.03 1009.35 1009.64 1009.22 1009.55 1010.10 1011.03 1012.74 1014.75 1015.38 1015.15 1014.63 1014.25 1013.98 1014.10 1014.88 1015.81 1016.59 1017.00 1015.23 1014.27 1014.37 1015.11 1015.92 1016.90 1018.20 1019.02 1020.30
1006.21 1005.76 1006.05 1005.43 1005.18 1005.09 1005.48 1005.60 1005.41 1005.22 1005.34 1005.47 1005.71 1005.76 1006.32 1007.39 1007.92 1008.98 1009.72 1010.05 1009.84 1009.98 1010.07 1010.41 1012.11 1013.05 1013.58 1013.09 1013.42 1014.15 1013.65 1013.71 1014.14 1015.45 1015.46 1015.05 1014.42 1014.26 1014.52 1014.90 1015.67 1016.72 1017.33 1018.51 1019.74
1006.42 1006.26 1006.21 1006.05 1006.06 1005.37 1005.90 1005.69 1005.64 1005.59 1005.45 1005.65 1006.22 1006.06 1006.27 1007.26 1008.06 1008.78 1009.42 1010.38 1010.56 1010.36 1010.71 1011.17 1012.38 1013.09 1013.19 1012.86 1012.80 1012.64 1012.78 1013.27 1013.73 1013.36 1014.25 1013.02 1013.63 1013.27 1013.41 1013.98 1014.41 1015.42 1016.75 1017.78 1018.92
1006.40 1006.91 1006.91 1006.37 1005.50 1005.65 1005.88 1005.53 1005.50 1005.93 1005.88 1006.35 1006.54 1006.73 1006.89 1007.00 1007.13 1007.91 1008.53 1009.57 1010.10 1011.31 1011.18 1011.84 1012.99 1013.23 1014.15 1013.75 1013.22 1012.88 1012.78 1013.01 1012.83 1012.72 1012.75 1012.48 1012.25 1011.83 1012.13 1013.38 1014.61 1015.13 1016.00 1017.13 1017.81
1006.90 1007.22 1007.25 1006.70 1006.65 1006.03 1005.69 1005.53 1005.88 1006.28 1006.59 1006.71 1007.12 1007.41 1007.67 1007.66 1007.65 1007.78 1008.21 1008.99 1009.51 1010.43 1011.03 1012.26 1013.09 1014.02 1015.10 1014.87 1014.13 1014.00 1012.38 1012.19 1012.04 1011.81 1011.22 1011.57 1010.42 1011.66 1012.15 1012.58 1013.27 1014.18 1014.77 1015.29 1016.07
Wind_Speed
21 20 19 19 17 18 17 19 19 17 17 19 19 16 14 7 6 2 4 3 7 6 5 6 8 9 5 4 2 2 4 2 5 7 5 5 4 3 3 7 5 5 7 13 15
21 19 19 18 18 17 19 19 20 18 18 17 16 15 15 11 6 8 3 5 6 4 3 5 2 9 4 2 1 3 5 5 4 6 6 7 6 6 6 5 6 6 11 16 15
19 18 19 19 18 18 20 20 20 20 20 20 19 18 12 6 5 9 13 14 7 3 3 3 5 1 3 1 2 4 5 4 3 3 11 9 5 4 10 2 7 16 15 12 11
19 18 19 19 19 18 21 21 21 22 21 20 19 17 13 3 8 8 22 18 11 3 2 6 6 4 3 2 4 3 5 1 1 4 6 8 7 6 4 3 12 14 16 11 13
20 19 19 18 18 19 20 23 21 23 22 21 19 17 7 3 7 3 25 22 11 4 6 7 9 8 6 5 2 3 2 3 2 4 7 7 4 5 5 5 10 12 13 11 9
21 19 18 17 19 21 20 23 22 21 22 22 19 15 4 5 7 5 18 21 17 12 10 8 8 9 6 5 7 6 5 5 4 1 4 8 2 3 2 6 11 11 11 10 11
21 20 18 18 18 21 20 20 21 20 20 20 20 4 3 8 2 6 17 16 21 20 11 14 13 4 1 2 6 6 7 2 4 3 3 6 2 3 6 7 10 10 9 10 10
23 20 18 19 19 19 19 20 19 19 17 18 16 1 4 4 4 2 5 10 21 12 12 8 5 4 3 1 3 6 6 4 3 6 1 2 5 4 7 10 10 9 7 9 8
23 21 19 20 19 18 20 21 19 19 17 16 7 3 6 1 6 6 3 10 6 2 3 4 7 6 3 5 2 1 5 4 2 4 3 3 3 5 7 7 9 9 9 8 7
23 23 22 22 21 22 23 21 21 17 12 6 5 1 4 5 5 7 3 18 1 5 3 5 5 5 3 5 11 5 3 3 6 7 2 5 2 4 5 7 9 9 9 8 8
25 25 24 23 25 29 24 16 10 5 7 7 12 6 5 4 6 5 7 5 6 7 8 4 4 14 8 8 5 6 6 7 1 4 4 8 6 8 7 5 7 7 9 9 8
26 26 26 26 28 28 16 6 5 11 9 8 12 4 2 3 5 6 7 12 5 13 8 4 13 7 8 8 9 4 7 4 2 2 3 5 8 5 7 6 6 9 7 8 7
25 26 27 28 29 17 14 5 10 15 7 3 5 7 3 3 4 11 14 8 15 8 12 8 5 8 12 7 10 6 7 6 8 3 2 5 6 5 5 3 3 5 6 5 9
24 26 28 30 18 14 11 10 8 1 6 6 7 7 4 4 3 4 8 8 6 18 14 8 12 17 6 10 9 8 6 7 12 6 5 4 5 7 7 6 5 5 6 6 7
25 25 30 26 15 14 12 3 3 4 6 11 6 3 8 7 10 5 3 3 14 9 8 6 10 8 6 7 8 6 8 9 5 5 5 3 3 8 8 5 9 8 7 7 7
28 27 30 9 9 16 8 6 4 4 6 8 7 9 8 5 3 5 6 1 5 7 4 3 1 4 6 2 7 8 8 8 5 4 1 5 7 6 7 13 6 6 8 8 7
8 29 25 9 12 15 7 4 5 6 5 8 8 8 11 7 5 5 15 8 8 11 12 3 2 2 3 7 5 8 7 3 2 1 7 2 4 9 7 7 10 13 10 9 8
15 29 17 0 14 13 5 5 5 7 11 5 9 14 9 11 3 8 11 10 7 9 7 6 4 7 4 7 9 5 8 7 7 5 4 2 7 6 3 2 8 12 11 10 8
14 12 8 2 17 10 12 12 11 9 8 9 9 16 6 6 9 6 13 18 6 8 8 8 3 2 1 2 10 6 4 5 9 3 4 5 5 5 3 5 8 11 10 9 9
3 10 6 2 14 12 13 12 5 9 10 16 8 7 8 17 8 9 16 13 8 9 2 6 6 2 1 1 1 6 9 3 3 6 4 4 4 7 8 13 10 12 11 10 9
3 8 1 1 11 13 17 9 7 1 15 8 7 7 9 11 7 13 17 5 18 9 6 3 5 1 3 5 9 3 3 2 6 5 7 2 8 8 18 17 18 15 14 12 12
3 4 1 2 13 10 12 10 5 5 4 4 6 5 12 13 7 9 13 5 18 11 9 3 6 4 6 1 2 1 7 6 6 6 1 4 8 2 6 14 17 15 13 12 12
2 0 2 4 13 17 9 9 4 4 3 3 4 4 6 11 6 4 6 2 2 12 12 8 2 5 4 3 2 5 4 5 5 5 7 7 8 1 1 9 13 16 14 14 14
1 2 2 3 2 16 14 19 15 5 5 4 3 3 6 9 2 9 5 1 3 5 7 7 5 8 9 8 8 8 9 7 6 4 5 8 4 5 7 12 11 12 16 16 16
2 3 4 6 4 16 13 15 15 7 3 5 2 3 5 6 4 6 5 3 5 6 4 6 7 5 2 4 5 8 9 9 8 19 10 16 9 6 11 14 20 16 16 17 17
3 2 2 2 4 14 19 10 21 6 8 4 5 6 2 5 7 9 10 5 9 2 7 2 2 3 1 3 2 3 8 11 20 12 9 2 7 8 9 7 11 17 18 19 20
1 1 2 6 4 8 11 16 11 8 1 5 8 6 5 4 3 3 4 8 11 9 6 10 6 5 4 1 4 3 13 12 11 8 19 14 23 7 5 14 17 17 21 24 22
Wind_Direction
190 193 185 179 182 183 164 158 161 162 165 170 176 183 188 166 79 31 201 192 114 39 158 142 282 279 278 267 35 40 69 279 260 169 182 166 124 3 74 94 47 357 159 147 153
191 192 187 178 179 184 160 150 148 153 148 153 152 157 170 170 185 228 194 241 175 311 100 85 189 345 278 279 347 103 117 233 264 153 172 155 127 132 93 92 28 56 92 131 145
190 182 186 179 173 177 166 155 153 150 155 152 149 150 141 151 186 225 180 186 230 201 15 84 320 310 238 270 228 190 183 251 336 323 142 145 134 130 128 154 183 148 143 148 154
184 179 188 179 170 171 169 156 157 148 151 148 154 143 146 176 191 190 172 177 189 190 294 54 327 310 209 208 245 161 243 133 319 337 119 145 150 130 152 165 162 162 157 151 165
178 178 188 172 168 171 172 161 159 156 148 149 145 139 142 185 251 223 168 164 168 179 212 149 204 234 206 173 238 211 187 101 83 16 123 113 111 138 129 90 135 138 154 154 170
174 176 180 174 166 168 169 167 163 157 158 153 153 157 140 199 223 159 167 156 171 190 203 192 226 229 216 179 153 226 181 148 128 13 63 119 124 119 228 125 114 144 166 170 175
170 173 175 170 164 166 159 164 161 158 158 156 151 149 111 216 330 147 159 175 170 197 188 209 223 293 286 58 208 148 105 102 140 185 132 123 54 191 172 148 142 155 178 182 188
167 167 170 163 157 162 157 153 145 141 147 145 141 119 242 226 199 160 150 152 189 189 211 205 204 277 232 209 105 143 88 138 239 149 208 110 214 225 187 148 171 180 192 187 190
164 162 169 157 153 150 149 137 132 131 131 132 99 174 254 68 142 182 167 133 125 194 199 268 141 213 115 118 71 174 173 166 158 202 151 160 189 217 194 175 182 185 191 190 182
162 160 164 157 149 147 135 117 116 115 123 143 112 204 254 197 153 150 162 124 196 182 150 178 188 156 130 134 196 164 169 169 162 202 187 153 244 197 206 182 199 187 186 178 172
162 159 159 156 149 137 126 117 123 132 192 169 171 234 160 143 111 155 173 82 140 193 169 217 163 193 180 147 193 147 199 168 308 183 132 192 185 211 208 205 171 181 165 169 156
165 160 158 154 148 138 143 171 188 141 156 267 175 285 25 117 117 148 168 134 196 175 164 202 216 179 165 186 219 171 194 164 4 41 123 177 230 220 194 216 187 170 169 161 150
167 160 157 151 145 145 162 206 154 136 137 190 181 200 189 115 152 174 155 155 170 190 189 202 217 179 188 185 203 186 182 187 161 143 1 108 313 218 208 143 130 113 134 146 163
168 162 156 146 147 154 189 212 178 133 108 173 179 215 158 183 136 165 189 143 181 189 200 220 235 186 175 208 166 213 174 144 136 119 199 145 254 247 199 187 197 191 157 147 118
166 165 157 153 129 166 189 164 156 50 112 171 175 127 161 168 143 191 154 182 177 167 162 205 171 184 177 189 164 193 134 144 131 120 112 189 105 257 138 195 219 209 193 174 145
171 165 156 142 130 169 127 157 71 90 213 168 147 160 144 168 167 129 150 205 193 146 70 176 221 145 186 89 151 138 90 54 62 76 292 217 163 261 190 203 164 180 166 146 138
229 168 159 147 164 158 139 120 95 158 192 173 178 163 157 152 128 163 178 187 175 152 162 105 35 301 173 86 3 114 104 58 34 334 218 1 183 241 223 215 180 170 159 153 144
312 160 156 190 144 142 134 107 128 181 173 135 132 140 169 142 132 173 145 198 247 146 138 148 194 188 195 168 171 175 150 152 170 187 225 332 225 249 293 283 145 148 151 150 151
312 150 143 271 146 147 138 184 202 165 161 126 103 152 154 175 133 144 189 196 205 187 156 156 163 144 66 41 150 219 181 166 101 30 72 215 282 309 71 104 128 145 149 151 148
347 142 120 336 163 154 170 196 194 175 122 137 150 177 161 173 138 171 176 203 214 189 157 183 115 18 314 113 7 171 156 102 11 134 238 275 252 226 198 191 169 165 160 159 146
7 132 111 27 173 173 194 186 208 315 139 147 155 161 159 176 163 177 179 215 194 201 162 105 101 186 133 205 172 150 188 157 125 143 161 168 255 219 197 183 179 172 168 162 152
3 114 307 220 159 198 190 185 160 132 66 170 133 131 166 165 154 178 183 190 187 169 163 108 108 140 202 230 268 118 203 155 164 214 152 158 264 193 198 182 172 171 163 156 155
50 132 325 204 172 185 156 201 202 125 159 131 133 153 144 161 142 173 154 349 177 165 165 173 114 89 15 354 333 213 205 172 112 83 197 145 255 310 150 151 170 163 163 157 154
36 133 71 11 17 170 173 192 199 166 147 120 113 104 117 157 92 170 130 170 8 117 129 99 139 163 185 194 143 192 193 186 141 125 179 225 209 222 177 171 168 170 162 162 163
23 19 338 158 200 167 182 181 191 164 125 119 31 169 151 137 110 144 115 101 12 155 81 125 191 171 73 129 149 192 180 167 193 218 187 234 198 216 199 186 187 172 162 163 170
84 1 348 354 41 158 185 187 194 176 144 178 132 184 181 155 183 174 137 176 168 302 132 73 178 114 112 10 128 132 196 199 211 219 247 209 265 198 197 147 164 176 169 178 182
30 3 341 343 75 181 185 188 187 163 197 107 171 143 180 167 101 96 127 141 152 147 141 152 144 100 253 2 88 337 213 192 222 216 216 225 238 151 179 184 182 179 184 189 187